Simultaneous Nadir Overpasses (SNOs) Predictions

Prediction of SNOs between GOES-16 and TERRA Satellite Orbit:

Table of predicted SNOs for the next 14.0 days since TLE Epoch: 8/19/2023
Index Date Time (GOES-16) GOES-16 Lat,Lon TERRA Lat,Lon Distance(km) Time Diff (sec)
1 08/21/2023 02:49:15 0.03, -75.21 0.84, -71.39 434.50 80
2 08/21/2023 15:06:46 -0.03, -75.22 0.20, -76.29 121.69 80
3 08/23/2023 14:53:03 -0.03, -75.24 -0.64, -72.34 329.46 80
4 08/24/2023 03:10:41 0.03, -75.23 -0.40, -77.28 232.35 80
5 08/26/2023 02:56:57 0.03, -75.24 0.40, -73.31 218.91 80
6 08/26/2023 15:14:28 -0.03, -75.25 0.62, -78.22 337.17 80
7 08/28/2023 14:58:04 -0.02, -75.27 -0.21, -74.26 114.74 80
8 08/29/2023 03:21:03 0.01, -75.27 -0.82, -79.19 446.71 80
9 08/31/2023 03:01:59 0.01, -75.29 0.02, -75.24 6.07 80
10 09/02/2023 02:45:35 0.01, -75.32 0.89, -71.28 459.77 80
